Location: Izdebno
(52.6670°N, 16.2170°E)
Time: 13:05:13
(UTC+02:00)

Vanguard 2 - Pass Details

Date: 04 February 2023
Orbit: 553 x 2927 km, 32.9° (Epoch: 26 March)

Event Time Altitude Azimuth Distance (km) Brightness Sun altitude
Rises 04:24:04 0° 269° (W) 6,774 - -28.7°
Reaches altitude 10° 04:32:48 10° 247° (WSW) 5,699 - -27.4°
Maximum altitude 04:38:34 13° 227° (SW) 5,303 - -26.6°
Exits shadow 04:41:34 12° 216° (SW) 5,239 11.4 -26.1°
Drops below altitude 10° 04:44:01 10° 206° (SSW) 5,267 11.5 -25.7°
Sets 04:51:19 0° 182° (S) 5,783 11.9 -24.6°
